Change the Weather History Date:

Thursday, April 18, 2013

  Actual Average Record
Temperature  
Mean Temperature 55 °F 54 °F  
Max Temperature 61 °F 62 °F 91 °F (1976)
Min Temperature 49 °F 45 °F 35 °F (2014)
Degree Days  
Heating Degree Days 10 12  
Month to date heating degree days 244 263  
Since 1 July heating degree days 4191 4399  
Cooling Degree Days 0 0  
Month to date cooling degree days 0 0  
Year to date cooling degree days 0 0  
Growing Degree Days 4 (Base 50)    
Moisture  
Dew Point 43 °F    
Average Humidity 65    
Maximum Humidity 93    
Minimum Humidity 37    
Precipitation  
Precipitation 0.01 in 0.12 in 0.58 in (1953)
Month to date precipitation 1.04 2.49  
Year to date precipitation 9.31 12.39  
Snow  
Snow 0.00 in 0.10 in - ()
Month to date snowfall 0.0 0.5  
Since 1 July snowfall 22.2 26.9  
Snow Depth 0.00 in    
Sea Level Pressure  
Sea Level Pressure 30.26 in    
Wind  
Wind Speed 10 mph (SE)    
Max Wind Speed 20 mph    
Max Gust Speed 28 mph    
Visibility 10 miles    
Events Rain    
T = Trace of Precipitation, MM = Missing Value Source: NWS Daily Summary

Daily Weather History Graph

Daily Weather History Graph

Search for Another Location

Airport or City:

Trip Planner

Search our weather history database for the weather conditions in past years. The results will help you decide how hot, cold, wet, or windy it might be!

Date:

Astronomy

Apr. 18, 2013 Rise Set
Actual Time 6:11 AM EDT 7:38 PM EDT
Civil Twilight 5:43 AM EDT 8:07 PM EDT
Nautical Twilight 5:08 AM EDT 8:41 PM EDT
Astronomical Twilight 4:32 AM EDT 9:18 PM EDT
Moon 12:20 PM EDT (4/18) 1:52 AM EDT (4/18)
Length of Visible Light 14h 23m
Length of Day
13h 26m
First Quarter, 51% of the Moon is Illuminated
Apr 18
First Quarter
Apr 25
Full
May 2
Last Quarter
May 9
New
May 18
First Quarter

Hourly Weather History & Observations

Time (EDT) Temp. Dew Point Humidity Pressure Visibility Wind Dir Wind Speed Gust Speed Precip Events Conditions
12:51 AM 55.9 °F 37.0 °F 49% 30.30 in 10.0 mi South 5.8 mph - N/A   Clear
1:51 AM 55.0 °F 36.0 °F 49% 30.30 in 10.0 mi SSE 6.9 mph - N/A   Clear
2:51 AM 54.0 °F 36.0 °F 51% 30.30 in 10.0 mi SSE 5.8 mph - N/A   Partly Cloudy
3:51 AM 52.0 °F 39.0 °F 61% 30.32 in 10.0 mi SE 8.1 mph - N/A   Scattered Clouds
4:51 AM 51.1 °F 41.0 °F 68% 30.32 in 10.0 mi East 5.8 mph - N/A   Partly Cloudy
5:51 AM 50.0 °F 42.1 °F 74% 30.32 in 10.0 mi East 5.8 mph - N/A   Partly Cloudy
6:51 AM 50.0 °F 43.0 °F 77% 30.34 in 10.0 mi NE 8.1 mph - N/A   Partly Cloudy
7:51 AM 51.1 °F 43.0 °F 74% 30.35 in 10.0 mi ENE 8.1 mph - N/A   Scattered Clouds
8:51 AM 57.0 °F 37.0 °F 47% 30.34 in 10.0 mi SE 10.4 mph - N/A   Mostly Cloudy
9:51 AM 59.0 °F 33.1 °F 38% 30.34 in 10.0 mi SE 18.4 mph 24.2 mph N/A   Mostly Cloudy
10:51 AM 57.9 °F 35.1 °F 42% 30.35 in 10.0 mi SE 13.8 mph 25.3 mph N/A   Overcast
11:51 AM 60.8 °F 35.6 °F 39% 30.34 in 10.0 mi SE 11.5 mph 25.3 mph N/A   Overcast
12:51 PM 57.9 °F 37.0 °F 46% 30.32 in 10.0 mi SE 16.1 mph - N/A   Overcast
1:51 PM 57.9 °F 39.9 °F 51% 30.31 in 10.0 mi SE 12.7 mph 21.9 mph N/A   Overcast
2:51 PM 57.9 °F 42.1 °F 56% 30.28 in 10.0 mi SE 13.8 mph - N/A   Overcast
3:24 PM 57.2 °F 42.8 °F 59% 30.27 in 10.0 mi SE 17.3 mph - N/A   Overcast
3:51 PM 57.9 °F 43.0 °F 58% 30.27 in 10.0 mi SE 12.7 mph - N/A   Overcast
4:51 PM 57.0 °F 43.0 °F 59% 30.24 in 10.0 mi ESE 13.8 mph - 0.00 in   Overcast
5:51 PM 55.0 °F 46.9 °F 74% 30.22 in 10.0 mi SE 11.5 mph - 0.01 in Rain Light Rain
6:51 PM 55.0 °F 46.9 °F 74% 30.20 in 10.0 mi SE 11.5 mph 18.4 mph 0.00 in   Overcast
7:51 PM 55.9 °F 48.0 °F 75% 30.19 in 10.0 mi ESE 6.9 mph - N/A   Overcast
8:51 PM 57.0 °F 48.9 °F 74% 30.18 in 10.0 mi SE 6.9 mph - N/A   Overcast
9:46 PM 55.4 °F 51.8 °F 88% 30.16 in 10.0 mi SSE 10.4 mph - N/A   Overcast
9:51 PM 57.0 °F 51.1 °F 81% 30.15 in 10.0 mi SSE 9.2 mph - N/A   Overcast
10:11 PM 57.2 °F 51.8 °F 82% 30.15 in 10.0 mi South 13.8 mph - N/A   Overcast
10:44 PM 55.4 °F 51.8 °F 88% 30.13 in 10.0 mi South 11.5 mph 20.7 mph N/A   Overcast
10:51 PM 55.0 °F 51.1 °F 86% 30.13 in 10.0 mi South 9.2 mph 16.1 mph N/A   Overcast
11:44 PM 53.6 °F 51.8 °F 94% 30.11 in 2.0 mi South 6.9 mph - N/A   Overcast
11:51 PM 54.0 °F 52.0 °F 93% 30.11 in 2.0 mi South 5.8 mph - N/A   Overcast